Temperature
4 5 4 5 5 4 4 4 4 5 5 6 6 5 6 6 6 7 7 7 7 7 8 8 8 8 7 7 7 7 7 7 6 6 6 6 6 6 6 5 5 5 5 5
4 5 4 4 5 4 4 4 4 4 5 5 5 6 6 6 6 6 7 7 7 7 7 7 7 7 7 7 7 7 6 6 6 6 6 6 5 5 5 5 5 5 5 5
4 4 5 5 6 5 5 4 4 5 5 5 4 5 5 6 6 6 7 7 7 7 7 7 7 7 7 7 6 6 6 6 6 6 6 5 5 5 5 5 5 4 4 4
3 4 5 7 6 5 5 5 4 4 4 4 4 5 6 6 6 6 6 7 7 7 7 7 7 7 6 6 6 6 6 6 6 5 5 5 5 5 4 4 4 4 4 4
3 3 4 5 5 5 5 5 4 4 4 4 5 5 6 6 6 6 6 6 6 6 6 7 7 6 6 6 6 6 6 5 5 5 5 5 4 4 4 4 4 4 4 3
3 4 5 7 6 5 5 5 5 4 4 4 4 3 4 6 6 6 6 6 6 6 6 6 6 6 6 6 6 5 5 5 5 5 5 4 4 4 4 3 3 3 3 3
3 3 4 5 5 5 6 5 5 5 5 4 4 4 5 5 5 5 5 6 5 5 6 6 6 5 5 5 5 5 5 5 4 4 4 4 4 3 3 3 3 2 2 2
2 3 4 5 4 4 5 5 5 5 5 5 5 5 5 5 5 5 5 5 5 5 5 5 5 5 5 5 5 4 4 4 4 4 4 3 3 3 3 2 2 2 2 2
3 4 5 5 5 6 5 5 5 5 5 5 4 4 4 4 5 4 4 4 4 4 4 4 4 4 4 4 4 4 4 4 4 3 3 3 3 3 2 2 2 2 1 1
1 2 4 5 5 5 5 5 5 5 4 4 4 4 4 4 4 4 4 4 4 4 4 4 4 4 4 4 4 4 3 3 3 3 3 3 2 2 2 2 1 1 1 1
1 2 3 5 5 5 5 5 4 4 4 4 4 3 3 3 3 3 3 3 3 3 3 3 3 3 3 3 3 3 3 3 3 2 2 2 2 2 2 2 1 1 1 1
2 3 3 4 5 4 4 4 4 4 3 3 3 3 3 3 3 3 3 3 3 3 3 3 3 3 3 2 2 2 2 2 2 2 2 2 2 1 1 1 1 0 0 0
4 4 4 4 4 4 3 3 3 3 3 3 2 2 2 2 2 2 2 2 2 2 2 2 2 2 2 2 2 2 2 2 2 1 1 1 1 1 1 1 0 0 -0 -0
3 3 3 3 3 3 3 2 2 2 2 2 2 2 2 2 2 2 2 2 2 1 1 1 2 2 2 1 1 1 1 1 1 1 1 1 0 0 0 -0 -0 -0 -0 -1
2 2 2 2 2 2 2 2 1 1 1 1 1 1 1 1 1 1 1 1 1 1 1 1 1 1 1 1 1 1 1 0 0 0 0 0 -0 -0 -1 -1 -1 -1 -1 -1
1 1 1 1 1 1 1 1 1 1 0 1 1 1 1 1 1 1 1 1 0 1 1 1 1 1 0 0 0 0 -0 -0 -0 -0 -0 -1 -1 -1 -1 -1 -2 -2 -2 -2
0 0 0 0 0 0 0 -0 -0 -0 -0 -0 -0 -0 -0 0 0 0 0 0 -0 0 0 0 0 -0 -0 -0 -0 -1 -1 -1 -1 -1 -1 -1 -2 -2 -2 -2 -2 -2 -3 -3
0 -0 -0 -0 -0 -1 -1 -1 -1 -1 -1 -1 -1 -1 -1 -1 -0 -0 -0 -0 -0 -0 -0 -0 -1 -1 -1 -1 -1 -1 -1 -1 -2 -2 -2 -2 -2 -2 -3 -3 -3 -3 -3 -3
-0 -0 -1 -1 -1 -1 -1 -1 -1 -1 -1 -1 -1 -1 -1 -1 -1 -1 -1 -1 -1 -1 -1 -1 -1 -1 -1 -1 -2 -2 -2 -2 -2 -2 -2 -3 -3 -3 -3 -4 -4 -4 -4 -4
-1 -1 -1 -1 -1 -1 -1 -1 -1 -1 -1 -1 -2 -1 -1 -1 -2 -2 -2 -2 -2 -2 -2 -2 -2 -2 -2 -2 -2 -2 -2 -2 -3 -3 -3 -3 -3 -4 -4 -4 -4 -4 -4 -4
-2 -2 -2 -2 -2 -2 -2 -2 -2 -2 -2 -2 -2 -2 -2 -2 -2 -2 -2 -2 -2 -2 -2 -2 -2 -2 -3 -3 -3 -3 -3 -3 -3 -3 -3 -4 -4 -4 -4 -5 -5 -5 -5 -5
-2 -2 -2 -2 -2 -2 -2 -2 -2 -2 -2 -2 -3 -3 -3 -3 -3 -3 -3 -3 -3 -3 -3 -3 -3 -3 -3 -3 -3 -3 -3 -3 -4 -4 -4 -5 -5 -5 -5 -5 -5 -5 -5 -5
-3 -3 -3 -3 -3 -3 -3 -3 -3 -3 -3 -3 -3 -3 -3 -3 -3 -4 -4 -3 -4 -4 -4 -4 -3 -4 -4 -4 -4 -4 -4 -4 -4 -5 -5 -5 -5 -5 -5 -5 -5 -6 -6 -6
-3 -3 -3 -3 -3 -3 -3 -3 -3 -3 -4 -4 -4 -4 -4 -4 -4 -4 -4 -4 -4 -4 -4 -4 -4 -4 -4 -4 -4 -4 -4 -5 -5 -5 -5 -5 -5 -6 -6 -6 -6 -6 -6 -6
-4 -4 -4 -4 -4 -4 -4 -4 -4 -4 -4 -4 -4 -4 -4 -5 -5 -5 -5 -5 -5 -5 -5 -5 -5 -5 -5 -5 -5 -5 -5 -5 -5 -5 -6 -6 -6 -6 -6 -6 -6 -6 -6 -6
-4 -4 -4 -4 -4 -4 -4 -4 -5 -5 -5 -5 -5 -5 -5 -5 -5 -5 -5 -5 -5 -5 -5 -5 -5 -5 -5 -5 -5 -5 -6 -6 -6 -6 -6 -6 -6 -6 -6 -6 -6 -6 -6 -7
-5 -5 -5 -5 -5 -5 -5 -5 -5 -5 -5 -6 -5 -5 -5 -6 -6 -6 -6 -6 -6 -6 -6 -6 -6 -6 -6 -6 -6 -6 -6 -6 -6 -6 -6 -6 -6 -6 -6 -6 -6 -7 -7 -7
Wind_Speed
7 7 5 8 9 7 8 8 8 9 9 12 10 9 9 8 7 7 7 6 5 4 3 3 3 3 3 4 4 4 4 5 5 5 4 3 3 3 3 3 4 4 3 3
5 4 5 9 11 9 10 8 9 9 12 8 6 5 6 7 7 7 7 7 6 6 4 4 4 4 4 4 4 4 5 6 4 4 4 4 3 3 2 2 3 3 3 4
5 5 6 8 7 7 6 6 7 8 8 5 5 7 7 6 6 7 8 8 7 6 5 5 5 4 5 5 4 4 5 4 4 4 4 4 3 3 3 3 3 3 4 4
3 4 6 6 1 5 5 5 6 6 6 5 7 8 7 5 5 7 8 8 7 6 6 5 4 3 3 2 3 4 4 4 4 4 4 3 3 3 3 2 2 3 3 3
2 3 9 8 3 3 3 4 3 4 6 7 7 5 4 3 4 6 7 7 7 6 6 5 4 3 2 2 2 3 4 5 5 5 4 4 4 4 3 2 2 2 2 3
3 4 7 5 1 2 2 4 2 2 4 5 5 5 6 7 7 8 7 6 6 5 5 4 4 1 2 3 3 5 5 5 4 5 5 5 5 3 2 2 3 2 2 3
6 6 9 6 2 2 2 5 3 2 4 3 3 5 7 9 8 7 7 6 5 5 4 5 3 1 2 3 5 6 4 3 3 4 5 5 4 2 2 2 2 2 2 2
6 6 9 3 4 4 5 3 3 3 4 5 7 8 8 8 8 8 7 7 5 5 6 4 2 2 3 5 5 3 2 3 4 4 4 3 4 3 3 3 3 2 2 2
9 8 3 3 4 4 3 3 4 4 5 5 6 7 8 7 7 7 7 6 5 5 6 5 3 3 5 5 3 2 3 3 3 3 3 3 4 4 3 3 3 3 3 3
5 8 6 6 5 4 4 5 5 5 6 5 6 7 8 8 7 7 7 6 5 5 6 6 5 4 5 4 3 3 3 4 3 3 3 3 3 4 4 4 4 4 4 4
6 7 6 5 5 5 5 5 6 6 5 6 6 8 8 7 7 7 6 6 5 5 6 7 6 5 5 4 3 3 4 4 3 3 4 4 4 5 5 6 6 6 5 4
8 6 6 7 6 5 5 6 6 6 7 6 6 7 7 7 7 7 7 6 6 6 6 7 6 6 5 3 3 3 3 3 3 3 3 3 3 3 5 5 7 8 7 5
8 6 6 7 5 4 5 6 6 6 7 8 7 6 7 7 7 6 7 7 7 7 7 7 6 6 5 4 3 4 5 4 4 4 4 4 3 3 3 2 4 5 6 6
5 3 6 6 6 6 6 6 6 6 6 6 6 6 6 6 7 7 8 8 7 7 7 6 6 7 6 4 4 4 4 5 4 4 4 4 4 4 3 3 3 2 4 5
6 5 7 6 5 5 5 4 5 6 6 6 5 5 6 7 8 8 8 7 6 6 7 6 6 7 5 3 4 4 3 3 3 3 3 4 3 3 3 4 4 3 2 3
5 4 4 5 6 6 5 5 6 7 7 7 7 7 7 7 8 8 7 6 6 7 7 7 7 7 4 3 3 3 3 4 3 3 3 3 3 3 3 3 3 4 4 3
3 4 5 6 6 6 6 6 6 7 6 7 8 8 7 7 7 7 7 6 6 7 7 7 7 6 4 3 3 3 3 3 3 2 3 3 3 3 3 3 4 4 4 5
4 5 5 6 6 7 7 7 6 6 7 7 7 6 6 7 8 8 8 7 6 6 6 6 5 4 4 3 3 2 2 2 2 3 3 3 3 3 3 4 4 4 4 4
2 3 4 5 5 5 6 7 6 6 6 6 6 6 7 7 7 7 6 6 6 7 7 5 6 4 3 3 3 2 3 3 2 2 3 4 3 3 3 4 4 4 3 3
2 2 3 4 5 4 5 6 6 6 6 5 5 6 6 7 6 6 5 6 5 6 6 5 4 3 3 3 3 2 3 3 3 3 3 3 3 3 3 3 3 3 3 3
3 3 3 4 5 5 5 5 5 6 6 5 5 6 6 7 5 4 4 6 6 5 5 5 3 3 3 3 4 2 3 3 3 3 3 3 3 3 3 3 3 3 4 3
3 3 4 4 5 6 6 5 4 5 5 5 5 5 5 6 5 5 4 5 6 7 5 4 3 4 5 5 2 2 3 3 3 3 3 3 3 3 4 4 4 4 4 4
4 4 4 4 5 6 6 5 4 4 5 5 5 5 5 5 4 4 6 4 4 7 6 4 5 7 7 3 2 2 3 3 3 3 3 3 4 4 4 4 4 4 4 4
4 4 4 4 3 4 5 6 5 4 4 5 5 4 4 4 4 3 3 6 8 8 5 6 8 8 7 2 2 2 3 3 3 3 3 3 3 3 3 4 4 4 4 4
4 4 4 4 4 4 5 5 5 4 4 4 5 5 4 3 4 5 4 5 7 8 5 6 8 8 4 2 2 2 2 3 3 3 3 3 3 3 3 3 4 4 4 4
4 4 4 4 4 4 3 3 3 4 4 5 5 4 4 4 4 4 4 5 5 7 5 4 4 4 2 2 2 2 3 3 3 3 3 3 3 4 4 4 4 4 4 4
3 3 3 3 3 3 3 3 3 4 4 4 6 5 5 4 4 4 5 4 4 4 4 4 3 3 3 2 2 2 2 2 2 3 3 3 3 3 4 4 4 3 3 3
Wind_Direction
255 266 261 255 255 233 217 214 224 253 263 280 299 305 309 315 323 330 329 329 321 307 288 276 266 246 228 225 217 199 194 205 216 216 210 203 204 210 210 210 216 213 212 222
286 273 271 270 259 238 233 232 240 265 275 276 298 312 320 323 322 320 314 312 311 308 298 280 267 256 241 230 218 200 205 215 213 202 203 205 208 208 209 220 222 211 213 215
280 310 321 278 251 213 222 217 206 234 255 300 317 315 306 305 307 300 302 304 303 297 285 273 265 251 240 233 213 203 212 215 209 202 205 210 203 196 210 219 214 213 217 214
286 348 263 252 238 199 226 246 225 248 273 288 290 293 286 280 290 300 303 303 300 297 291 284 270 257 243 224 207 209 215 218 212 204 208 206 200 208 214 211 209 212 215 217
197 268 279 291 260 184 205 278 234 242 284 305 313 323 318 321 312 297 296 297 295 293 291 291 280 258 218 222 214 216 223 222 215 205 202 199 209 216 215 205 216 216 213 210
187 234 256 261 233 196 132 279 267 247 296 314 348 341 304 320 321 311 308 305 305 308 310 304 294 252 211 233 227 233 233 228 215 202 199 204 210 209 203 199 211 205 217 219
210 238 264 258 250 106 187 256 291 265 280 284 266 258 284 309 310 307 308 309 312 314 312 300 289 233 238 247 246 248 241 227 217 210 207 205 199 195 187 187 186 204 225 236
185 216 253 218 136 179 228 268 274 270 272 271 274 283 293 299 303 310 315 315 317 316 311 303 273 229 250 259 262 253 228 225 227 220 211 196 185 191 186 182 194 217 231 257
198 219 257 211 221 241 232 259 268 266 277 277 279 286 296 299 302 305 307 308 310 305 307 306 281 242 253 267 262 237 222 230 233 224 212 195 187 189 191 189 200 219 221 243
248 264 265 262 259 259 247 252 268 271 277 274 274 284 293 296 299 301 302 305 309 311 308 303 295 272 259 264 248 226 230 236 228 219 220 208 201 195 197 202 209 217 224 236
255 276 297 274 250 262 275 274 281 285 276 269 272 280 283 289 293 294 297 300 302 299 297 295 294 285 277 260 233 235 239 238 229 219 216 216 216 212 210 213 209 214 224 223
244 244 240 267 270 270 274 279 282 288 292 286 270 273 283 287 289 291 293 296 296 292 289 290 289 286 281 262 234 229 243 240 231 224 221 216 220 247 240 233 240 239 236 232
245 259 255 270 279 274 271 275 278 277 276 285 287 278 282 286 289 288 289 289 286 285 286 286 284 284 280 263 242 232 237 239 232 223 220 220 216 218 252 274 248 243 241 241
253 270 277 275 275 284 281 284 288 288 284 279 283 288 287 287 290 289 286 285 287 288 288 284 281 280 278 260 245 242 242 237 229 224 220 218 217 219 219 229 249 260 250 249
259 252 257 275 283 288 291 292 297 297 299 301 297 294 291 289 289 288 289 290 292 291 288 285 282 281 278 253 244 246 245 241 231 224 219 218 216 218 222 228 238 254 270 267
273 280 271 269 272 281 288 284 282 286 291 295 298 297 294 289 287 289 291 287 284 285 286 285 281 282 272 249 245 250 248 247 236 222 218 216 214 219 228 231 236 241 247 250
251 269 271 277 279 283 281 274 270 275 283 287 290 295 300 301 299 296 294 289 281 279 280 279 281 285 270 250 240 245 246 246 242 233 221 219 220 226 231 234 239 244 249 247
236 246 257 261 270 280 285 285 281 281 281 283 290 294 294 292 291 293 297 302 302 299 291 280 278 283 271 253 242 239 234 235 230 228 226 226 232 231 235 240 244 251 260 256
279 278 287 286 279 274 278 282 284 284 286 288 286 284 282 282 283 288 295 299 299 298 298 292 293 288 274 262 255 233 231 231 235 236 234 244 250 239 241 244 247 250 256 259
320 310 306 306 305 292 285 286 287 289 288 285 284 288 292 292 289 289 292 290 281 275 283 292 294 283 274 263 260 232 229 229 232 237 235 230 235 245 247 248 246 251 256 256
312 310 312 314 312 307 298 296 298 296 298 292 285 287 291 296 297 296 299 303 302 295 295 299 299 287 281 273 266 235 228 228 231 233 234 235 239 246 250 250 252 254 256 259
301 301 304 309 312 311 311 308 303 301 304 304 300 297 299 304 308 306 291 280 294 309 313 294 286 285 287 287 253 236 232 233 235 235 236 236 238 244 249 251 252 255 254 254
292 291 299 303 303 304 312 316 312 307 304 303 303 304 301 299 300 301 306 305 307 312 314 294 294 296 298 294 253 243 239 239 238 236 238 238 240 242 244 247 251 253 254 256
295 297 299 300 302 309 312 313 314 311 305 303 302 301 301 308 311 296 284 306 318 318 314 305 307 306 310 298 258 250 247 247 247 243 242 245 246 245 244 247 252 255 255 256
295 297 299 304 304 298 296 305 315 318 319 319 318 316 310 299 296 307 312 312 316 320 317 314 315 318 322 296 276 266 260 254 253 252 240 243 244 246 249 250 251 255 256 255
295 297 292 286 284 286 294 302 308 315 319 320 322 323 322 320 314 313 316 317 319 322 323 316 313 316 313 299 287 278 270 273 281 273 254 252 250 252 255 256 255 255 256 255
300 300 301 305 303 294 293 295 299 306 310 311 313 318 322 324 324 322 321 322 322 322 321 318 317 314 308 303 297 291 285 279 273 267 263 258 254 254 254 255 259 260 261 261
Height
1520 1518 1518 1515 1513 1514 1515 1514 1514 1506 1502 1492 1489 1487 1484 1481 1479 1477 1475 1474 1473 1472 1471 1471 1471 1472 1472 1473 1474 1474 1475 1475 1476 1477 1478 1478 1479 1479 1479 1479 1479 1479 1480 1480
1519 1515 1515 1512 1507 1508 1507 1507 1506 1502 1498 1489 1488 1486 1483 1481 1478 1476 1474 1473 1472 1471 1470 1469 1469 1470 1470 1470 1471 1471 1471 1472 1473 1474 1474 1475 1475 1475 1475 1475 1475 1475 1475 1476
1520 1517 1511 1506 1497 1499 1499 1498 1499 1498 1493 1488 1487 1484 1482 1480 1478 1476 1474 1472 1471 1470 1469 1468 1468 1467 1467 1467 1468 1468 1468 1468 1469 1470 1470 1471 1471 1471 1471 1471 1471 1471 1471 1472
1523 1517 1512 1496 1492 1492 1493 1493 1493 1492 1490 1488 1486 1483 1481 1479 1478 1475 1473 1471 1470 1468 1466 1466 1465 1465 1464 1464 1464 1464 1464 1465 1465 1466 1466 1467 1467 1467 1467 1467 1466 1466 1467 1467
1523 1520 1509 1495 1491 1491 1492 1490 1488 1489 1487 1486 1483 1480 1478 1478 1476 1475 1473 1471 1468 1466 1464 1463 1462 1461 1461 1461 1461 1461 1461 1461 1462 1462 1462 1463 1463 1463 1463 1463 1462 1462 1463 1463
1519 1514 1505 1490 1488 1487 1490 1490 1486 1485 1485 1484 1482 1483 1479 1476 1474 1472 1470 1468 1466 1464 1462 1460 1459 1459 1458 1458 1457 1457 1458 1458 1458 1458 1459 1459 1459 1459 1459 1459 1459 1459 1459 1459
1515 1512 1500 1489 1487 1487 1493 1488 1484 1483 1483 1482 1482 1481 1478 1474 1472 1470 1467 1465 1463 1461 1459 1458 1457 1456 1455 1455 1454 1455 1455 1454 1455 1455 1455 1455 1455 1455 1455 1455 1455 1455 1455 1455
1511 1510 1499 1485 1486 1488 1486 1483 1482 1481 1481 1480 1478 1476 1474 1472 1469 1467 1465 1462 1460 1458 1456 1455 1454 1453 1452 1452 1452 1451 1451 1451 1451 1451 1451 1451 1451 1451 1451 1451 1451 1451 1451 1450
1496 1491 1484 1482 1482 1482 1482 1481 1480 1479 1478 1477 1475 1472 1470 1468 1466 1464 1461 1459 1457 1455 1453 1452 1451 1450 1449 1449 1448 1447 1447 1447 1447 1447 1447 1447 1447 1447 1447 1447 1447 1447 1446 1446
1490 1483 1480 1480 1479 1479 1479 1478 1477 1476 1474 1473 1471 1469 1467 1464 1462 1460 1458 1456 1454 1452 1450 1448 1447 1447 1446 1445 1445 1444 1443 1443 1443 1443 1443 1443 1443 1443 1443 1443 1442 1442 1442 1442
1486 1480 1478 1475 1476 1476 1475 1474 1473 1471 1470 1469 1467 1465 1463 1460 1458 1456 1454 1452 1450 1448 1446 1445 1444 1443 1442 1441 1441 1440 1439 1439 1439 1438 1438 1438 1438 1439 1438 1439 1439 1439 1438 1438
1478 1475 1475 1473 1472 1472 1471 1470 1469 1467 1465 1464 1463 1460 1458 1456 1454 1452 1450 1448 1446 1445 1443 1441 1440 1438 1438 1437 1437 1436 1435 1434 1434 1434 1434 1433 1433 1434 1434 1434 1434 1434 1434 1434
1471 1470 1470 1469 1468 1467 1466 1465 1464 1463 1461 1459 1457 1456 1454 1451 1450 1448 1446 1444 1442 1440 1439 1437 1435 1434 1433 1433 1432 1431 1430 1430 1429 1429 1429 1429 1428 1428 1428 1429 1429 1429 1429 1429
1467 1467 1465 1464 1464 1463 1462 1460 1459 1457 1456 1455 1453 1451 1449 1447 1445 1443 1441 1440 1438 1436 1434 1433 1431 1430 1429 1428 1427 1426 1426 1425 1425 1424 1424 1424 1424 1424 1423 1423 1423 1423 1424 1424
1462 1462 1461 1460 1459 1458 1457 1456 1454 1452 1451 1449 1448 1446 1444 1442 1440 1438 1437 1435 1433 1431 1429 1428 1426 1425 1424 1423 1423 1422 1421 1420 1420 1420 1419 1419 1419 1419 1419 1419 1419 1418 1419 1419
1458 1457 1457 1456 1454 1453 1452 1451 1449 1447 1446 1444 1443 1441 1440 1438 1436 1434 1432 1430 1428 1426 1425 1423 1421 1420 1420 1419 1418 1417 1416 1416 1416 1415 1415 1414 1414 1414 1414 1414 1414 1413 1413 1413
1453 1452 1451 1451 1450 1448 1447 1446 1445 1443 1441 1440 1438 1437 1435 1433 1431 1429 1427 1425 1424 1422 1420 1419 1417 1416 1415 1414 1413 1412 1412 1411 1411 1411 1410 1410 1410 1410 1409 1409 1409 1409 1409 1409
1449 1449 1448 1447 1446 1444 1443 1442 1440 1439 1437 1436 1434 1432 1430 1428 1426 1424 1422 1420 1418 1417 1415 1414 1413 1412 1411 1410 1409 1409 1408 1407 1407 1406 1406 1406 1406 1406 1405 1405 1404 1404 1404 1404
1445 1445 1445 1444 1443 1441 1439 1437 1436 1435 1433 1431 1429 1428 1426 1424 1422 1420 1418 1416 1413 1412 1410 1410 1409 1408 1406 1406 1405 1404 1404 1403 1403 1402 1402 1402 1401 1401 1401 1401 1400 1400 1399 1399
1442 1442 1441 1440 1439 1437 1436 1434 1432 1430 1429 1427 1425 1423 1421 1419 1418 1416 1413 1411 1410 1408 1406 1405 1404 1403 1402 1401 1401 1400 1400 1399 1399 1398 1398 1397 1397 1396 1396 1396 1396 1396 1395 1395
1440 1439 1438 1437 1436 1434 1433 1431 1429 1427 1425 1423 1421 1419 1417 1415 1414 1412 1409 1407 1406 1404 1403 1401 1400 1399 1398 1397 1397 1396 1396 1395 1395 1394 1394 1393 1393 1392 1392 1392 1392 1391 1391 1390
1438 1436 1435 1434 1433 1431 1429 1428 1426 1424 1422 1420 1418 1416 1414 1411 1410 1408 1406 1404 1402 1400 1399 1397 1396 1395 1394 1394 1393 1392 1391 1391 1390 1390 1389 1389 1388 1388 1388 1388 1387 1387 1387 1386
1435 1434 1433 1432 1430 1428 1426 1425 1423 1421 1419 1417 1415 1413 1411 1408 1406 1404 1402 1400 1399 1397 1395 1393 1392 1391 1390 1389 1388 1388 1387 1386 1386 1385 1385 1385 1384 1384 1384 1383 1383 1383 1382 1382
1432 1431 1430 1429 1427 1425 1423 1421 1420 1418 1416 1414 1412 1410 1408 1405 1403 1402 1399 1397 1395 1393 1391 1390 1389 1387 1386 1385 1384 1383 1382 1382 1381 1381 1381 1380 1380 1380 1380 1379 1379 1379 1378 1377
1430 1428 1427 1426 1424 1422 1420 1418 1416 1415 1413 1411 1409 1407 1405 1403 1401 1398 1396 1394 1392 1390 1388 1386 1385 1384 1382 1381 1380 1379 1378 1378 1377 1377 1377 1376 1376 1376 1376 1375 1375 1374 1374 1373
1426 1425 1424 1423 1421 1420 1418 1416 1414 1412 1410 1408 1406 1405 1403 1401 1398 1396 1394 1391 1389 1387 1385 1383 1381 1380 1379 1378 1376 1375 1375 1374 1374 1373 1373 1373 1372 1372 1372 1371 1371 1371 1370 1369
1423 1422 1421 1420 1418 1417 1415 1414 1412 1410 1408 1406 1404 1402 1400 1398 1396 1393 1391 1389 1387 1384 1382 1380 1379 1377 1376 1375 1374 1373 1372 1371 1371 1370 1370 1370 1369 1369 1368 1368 1367 1367 1366 1366